Location: Arbon
(43.0005°N, 0.7472°E)
Time: 18:22:21
(UTC+00:00)

Tiros 1 - Visible Passes

Search period start: 04 December 2020 00:00
Search period end: 14 December 2020 00:00
Orbit: 630 x 664 km, 48.4° (Epoch: 03 December)

Date Brightness Start Highest point End Pass type
(mag) Time Alt. Az. Time Alt. Az. Time Alt. Az.
04 Dec 7.3 17:21:35 10° WNW 17:26:21 58° NNE 17:30:15 15° E visible
04 Dec 8.1 19:03:57 10° WNW 19:07:56 45° WSW 19:07:56 45° WSW visible
05 Dec 7.1 17:47:38 10° WNW 17:52:28 87° NNE 17:55:41 21° ESE visible
05 Dec 9.3 19:30:26 10° W 19:33:23 23° WSW 19:33:23 23° WSW visible
06 Dec 7.8 18:13:45 10° WNW 18:18:25 52° SW 18:21:21 21° SE visible
06 Dec 10.2 19:58:36 10° WSW 19:59:04 11° WSW 19:59:04 11° WSW visible
07 Dec 7.2 16:57:28 10° WNW 17:02:18 83° NNE 17:07:05 10° ESE visible
07 Dec 9.1 18:40:10 10° W 18:44:10 26° SW 18:47:20 14° S visible
08 Dec 7.9 17:23:33 10° WNW 17:28:16 56° SSW 17:32:56 10° SE visible
08 Dec 10.0 19:07:52 10° WSW 19:09:42 12° SW 19:11:31 10° SSW visible
09 Dec 9.2 17:49:56 10° W 17:54:01 28° SW 17:58:06 10° SSE visible
10 Dec 10.1 18:17:18 10° WSW 18:19:35 13° SW 18:21:51 10° SSW visible
11 Dec 9.3 16:59:41 10° WNW 17:03:53 31° SW 17:08:04 10° SSE visible
12 Dec 10.2 17:26:51 10° W 17:29:28 15° SW 17:32:06 10° SSW visible
